Location: Kalberh�ni
(46.4610°N, 7.2453°E)
Time: 06:01:54
(UTC+00:00)

Cosmos 2322 - Pass Details

Date: 20 June 2021
Orbit: 839 x 855 km, 71.0° (Epoch: 28 July)

Event Time Altitude Azimuth Distance (km) Brightness Sun altitude
Rises 21:06:44 0° 205° (SSW) 3,379 6.5 -12.7°
Reaches altitude 10° 21:09:09 10° 206° (SSW) 2,449 5.8 -12.9°
Maximum altitude 21:14:47 88° 293° (WNW) 847 3.7 -13.4°
Drops below altitude 10° 21:20:29 10° 26° (NNE) 2,470 6.6 -14.0°
Sets 21:22:56 0° 27° (NNE) 3,410 7.3 -14.2°
